Weather History for Toronto, ON

Change the Weather History Date:

Wednesday, October 26, 2011

  Actual Average Record
Temperature  
Mean Temperature 43 °F -  
Max Temperature 45 °F 46 °F 66 °F (2010)
Min Temperature 41 °F 36 °F 33 °F (1997)
Degree Days  
Heating Degree Days 22    
Moisture  
Dew Point 41 °F    
Average Humidity 90    
Maximum Humidity 93    
Minimum Humidity 77    
Precipitation  
Precipitation 0.08 in 0.09 in - ()
Sea Level Pressure  
Sea Level Pressure 29.87 in    
Wind  
Wind Speed 14 mph ()    
Max Wind Speed 24 mph    
Max Gust Speed 32 mph    
Visibility 6.2 miles    
Events Rain    
Averages and records for this station are not official NWS values.
T = Trace of Precipitation, MM = Missing Value Source: Averaged Metar Reports

Daily Weather History Graph

Daily Weather History Graph

Search for Another Location

Airport:

Trip Planner

Search our weather history database for the weather conditions in past years. The results will help you decide how hot, cold, wet, or windy it might be!

Date:

Astronomy

Oct. 26, 2011 Rise Set
Actual Time 7:45 AM EDT 6:17 PM EDT
Civil Twilight 7:15 AM EDT 6:46 PM EDT
Nautical Twilight 6:42 AM EDT 7:20 PM EDT
Astronomical Twilight 6:08 AM EDT 7:53 PM EDT
Moon 7:32 AM EDT (10/26) 5:56 PM EDT (10/26)
Length of Visible Light 11h 30m
Length of Day
10h 32m
Waning Crescent, 0% of the Moon is Illuminated
Oct 26
Waning Crescent
Oct 26
New
Nov 2
First Quarter
Nov 10
Full
Nov 18
Last Quarter

Hourly Weather History & Observations

Time (EDT) Temp. Windchill Dew Point Humidity Pressure Visibility Wind Dir Wind Speed Gust Speed Precip Events Conditions
12:00 AM 44.6 °F 38.8 °F 42.8 °F 93% 30.01 in 9.0 mi ENE 11.5 mph - N/A Rain Light Rain
12:47 AM 44.6 °F 36.6 °F 42.8 °F 93% 29.96 in 5.0 mi East 19.6 mph - N/A Rain Rain
12:57 AM 44.6 °F 40.2 °F 42.8 °F 93% 29.96 in 6.0 mi NNE 8.1 mph 20.7 mph N/A Rain Light Rain
1:00 AM 44.6 °F 40.2 °F 41.0 °F 87% 29.96 in 9.0 mi East 8.1 mph - N/A Rain Light Rain
1:01 AM 44.6 °F 40.2 °F 41.0 °F 87% 29.96 in 9.0 mi East 8.1 mph - N/A Rain Light Rain
1:02 AM 44.6 °F 39.2 °F 41.0 °F 87% 29.96 in 9.0 mi East 10.4 mph - N/A Rain Light Rain
1:06 AM 44.6 °F 37.8 °F 41.0 °F 87% 29.95 in 9.0 mi East 15.0 mph - N/A Rain Light Rain
2:00 AM 45 °F - 42 °F 87% 29.94 in 10 mi ENE 18.4 mph - - Rain Light Rain
2:00 AM 44.6 °F 37.2 °F 42.8 °F 93% 29.93 in 9.0 mi ENE 17.3 mph - N/A Rain Light Rain
2:20 AM 44.6 °F 37.2 °F 42.8 °F 93% 29.93 in 9.0 mi ENE 17.3 mph 24.2 mph N/A Rain Light Rain
3:00 AM 44.6 °F 36.9 °F 42.8 °F 93% 29.91 in 9.0 mi ENE 18.4 mph 25.3 mph N/A Rain Light Rain
3:01 AM 44.6 °F 36.9 °F 42.8 °F 93% 29.91 in 9.0 mi ENE 18.4 mph 25.3 mph N/A Rain Light Rain
3:11 AM 44.6 °F 36.4 °F 42.8 °F 93% 29.91 in 9.0 mi ENE 20.7 mph - N/A Rain Light Rain
3:14 AM 44.6 °F 36.6 °F 42.8 °F 93% 29.91 in 9.0 mi ENE 19.6 mph - N/A Rain Light Rain
3:17 AM 44.6 °F 36.6 °F 42.8 °F 93% 29.91 in 9.0 mi ENE 19.6 mph - N/A Rain Light Rain
3:19 AM 44.6 °F 36.9 °F 42.8 °F 93% 29.91 in 9.0 mi ENE 18.4 mph 25.3 mph N/A Rain Light Rain
3:48 AM 44.6 °F 37.2 °F 42.8 °F 93% 29.90 in 9.0 mi ENE 17.3 mph 24.2 mph N/A Rain Light Rain
3:52 AM 44.6 °F 36.6 °F 42.8 °F 93% 29.89 in 9.0 mi ENE 19.6 mph - N/A Rain Light Rain
3:53 AM 44.6 °F 36.4 °F 42.8 °F 93% 29.89 in 9.0 mi ENE 20.7 mph - N/A Rain Light Rain
4:00 AM 44.6 °F 36.6 °F 42.8 °F 93% 29.89 in 9.0 mi ENE 19.6 mph - N/A Rain Light Rain
4:05 AM 44.6 °F 36.6 °F 42.8 °F 93% 29.89 in 9.0 mi ENE 19.6 mph - N/A Rain Light Rain
4:17 AM 44.6 °F 36.4 °F 42.8 °F 93% 29.88 in 9.0 mi ENE 20.7 mph 26.5 mph N/A Rain Light Rain
4:49 AM 46.4 °F 39.2 °F 44.6 °F 93% 29.87 in 5.0 mi NE 18.4 mph - N/A Rain Light Rain
4:55 AM 46.4 °F 38.5 °F 44.6 °F 93% 29.86 in 5.0 mi ENE 21.9 mph - N/A   Overcast
4:57 AM 46.4 °F 39.2 °F 44.6 °F 93% 29.87 in 5.0 mi NE 18.4 mph 26.5 mph N/A Rain Light Rain
5:29 AM 44.6 °F 36.9 °F 42.8 °F 93% 29.86 in 6.0 mi ENE 18.4 mph 26.5 mph N/A Rain Light Rain
5:48 AM 44.6 °F 36.1 °F 42.8 °F 93% 29.85 in 6.0 mi ENE 21.9 mph - N/A   Overcast
6:00 AM 44.6 °F 36.6 °F 42.8 °F 93% 29.85 in 9.0 mi ENE 19.6 mph 26.5 mph N/A   Overcast
8:00 AM 45 °F - 42 °F 85% 29.84 in 10 mi NE 21.9 mph - -   Clear
8:00 AM 44.6 °F 35.7 °F 41.0 °F 87% 29.84 in 9.0 mi NE 24.2 mph 32.2 mph N/A   Overcast
9:00 AM 44.6 °F 36.6 °F 42.8 °F 93% 29.84 in 9.0 mi NE 19.6 mph 25.3 mph N/A   Overcast
9:56 AM 44.6 °F 37.4 °F 42.8 °F 93% 29.86 in 5.0 mi NE 16.1 mph 26.5 mph N/A   Overcast
10:00 AM 44.6 °F 37.2 °F 42.8 °F 93% 29.85 in 5.0 mi NE 17.3 mph 25.3 mph N/A   Overcast
10:06 AM 44.6 °F 36.1 °F 42.8 °F 93% 29.85 in 4.0 mi NE 21.9 mph 32.2 mph N/A Rain Light Rain
10:53 AM 44.6 °F 36.9 °F 42.8 °F 93% 29.83 in 3.0 mi NE 18.4 mph 25.3 mph N/A   Overcast
11:00 AM 44.6 °F 37.2 °F 42.8 °F 93% 29.83 in 3.0 mi NE 17.3 mph 25.3 mph N/A   Overcast
11:27 AM 44.6 °F 36.6 °F 42.8 °F 93% 29.83 in 3.0 mi ENE 19.6 mph - N/A Rain Light Rain
11:36 AM 44.6 °F 36.6 °F 42.8 °F 93% 29.83 in 3.0 mi NE 19.6 mph 26.5 mph N/A   Overcast
11:41 AM 44.6 °F 35.7 °F 42.8 °F 93% 29.83 in 3.0 mi NE 24.2 mph - N/A Rain Light Rain
12:00 PM 44.6 °F 37.2 °F 42.8 °F 93% 29.84 in 3.0 mi NE 17.3 mph 25.3 mph N/A Rain Light Rain
12:01 PM 44.6 °F 36.9 °F 42.8 °F 93% 29.84 in 3.0 mi NE 18.4 mph 25.3 mph N/A   Overcast
12:04 PM 44.6 °F 37.2 °F 42.8 °F 93% 29.84 in 3.0 mi NE 17.3 mph 25.3 mph N/A Rain Light Rain
12:43 PM 44.6 °F 37.4 °F 42.8 °F 93% 29.83 in 3.0 mi NE 16.1 mph 21.9 mph N/A Rain Light Rain
12:47 PM 44.6 °F 37.4 °F 42.8 °F 93% 29.83 in 3.0 mi ENE 16.1 mph 23.0 mph N/A Rain Light Rain
12:54 PM 44.6 °F 37.2 °F 42.8 °F 93% 29.83 in 3.0 mi ENE 17.3 mph - N/A Rain Light Rain
12:55 PM 44.6 °F 37.4 °F 42.8 °F 93% 29.83 in 3.0 mi ENE 16.1 mph - N/A Rain Light Rain
12:56 PM 44.6 °F 37.4 °F 42.8 °F 93% 29.83 in 3.0 mi ENE 16.1 mph - N/A Rain Light Rain
12:58 PM 44.6 °F 37.4 °F 42.8 °F 93% 29.83 in 3.0 mi ENE 16.1 mph - N/A Rain Light Rain
1:00 PM 44.6 °F 37.4 °F 42.8 °F 93% 29.83 in 4.0 mi ENE 16.1 mph - N/A Rain Light Rain
1:02 PM 44.6 °F 38.1 °F 42.8 °F 93% 29.83 in 4.0 mi NE 13.8 mph 20.7 mph N/A Rain Light Rain
1:17 PM 42.8 °F 35.8 °F 41.0 °F 93% 29.83 in 3.0 mi NE 13.8 mph 20.7 mph N/A Rain Light Rain
1:24 PM 42.8 °F 36.6 °F 41.0 °F 93% 29.83 in 3.0 mi NE 11.5 mph 20.7 mph N/A Rain Light Rain
1:30 PM 44.6 °F 38.8 °F 42.8 °F 93% 29.83 in 3.0 mi NE 11.5 mph 17.3 mph N/A Rain Light Rain
1:52 PM 42.8 °F 36.2 °F 39.2 °F 87% 29.83 in 5.0 mi NE 12.7 mph - N/A Rain Light Rain
1:53 PM 42.8 °F 36.6 °F 39.2 °F 87% 29.83 in 6.0 mi NE 11.5 mph 17.3 mph N/A Rain Light Rain
2:00 PM 43 °F - 40 °F 87% 29.83 in 6 mi NE 11.5 mph - - Rain Light Rain
2:00 PM 42.8 °F 36.6 °F 41.0 °F 93% 29.82 in 6.0 mi NE 11.5 mph 17.3 mph N/A Rain Light Rain
2:11 PM 42.8 °F 36.2 °F 41.0 °F 93% 29.81 in 6.0 mi ENE 12.7 mph - N/A   Overcast
2:59 PM 42.8 °F 36.2 °F 39.2 °F 87% 29.82 in 5.0 mi NE 12.7 mph 19.6 mph N/A   Overcast
3:00 PM 42.8 °F 36.2 °F 39.2 °F 87% 29.82 in 5.0 mi NE 12.7 mph 19.6 mph N/A   Overcast
3:06 PM 42.8 °F 36.2 °F 39.2 °F 87% 29.83 in 4.0 mi NNE 12.7 mph 19.6 mph N/A Rain Light Rain
4:00 PM 42.8 °F 37.0 °F 41.0 °F 93% 29.84 in 4.0 mi NE 10.4 mph - N/A Rain Light Rain
4:09 PM 42.8 °F 37.5 °F 41.0 °F 93% 29.85 in 4.0 mi NE 9.2 mph - N/A Rain Light Rain
4:10 PM 42.8 °F 37.5 °F 41.0 °F 93% 29.85 in 4.0 mi NE 9.2 mph - N/A Rain Light Rain
4:15 PM 42.8 °F 37.5 °F 39.2 °F 87% 29.86 in 4.0 mi North 9.2 mph - N/A   Overcast
4:24 PM 42.8 °F 37.0 °F 39.2 °F 87% 29.85 in 5.0 mi NE 10.4 mph - N/A   Overcast
4:26 PM 42.8 °F 36.6 °F 39.2 °F 87% 29.86 in 5.0 mi NNE 11.5 mph - N/A   Overcast
4:27 PM 42.8 °F 37.0 °F 39.2 °F 87% 29.86 in 6.0 mi NE 10.4 mph - N/A   Overcast
4:28 PM 42.8 °F 37.0 °F 39.2 °F 87% 29.85 in 6.0 mi NE 10.4 mph - N/A   Overcast
4:29 PM 42.8 °F 37.0 °F 39.2 °F 87% 29.85 in 7.0 mi NE 10.4 mph - N/A   Overcast
4:42 PM 42.8 °F 34.8 °F 39.2 °F 87% 29.84 in 6.0 mi NE 17.3 mph - N/A Rain Light Rain
4:45 PM 42.8 °F 36.6 °F 39.2 °F 87% 29.85 in 5.0 mi NE 11.5 mph 20.7 mph N/A Rain Light Rain
5:00 PM 42.8 °F 36.6 °F 39.2 °F 87% 29.85 in 3.0 mi NNE 11.5 mph 18.4 mph N/A Rain Light Rain
5:09 PM 42.8 °F 36.6 °F 41.0 °F 93% 29.84 in 3.0 mi NE 11.5 mph 19.6 mph N/A Rain Light Rain
5:30 PM 42.8 °F 35.8 °F 39.2 °F 87% 29.84 in 3.0 mi NNE 13.8 mph 20.7 mph N/A   Overcast
5:31 PM 42.8 °F 35.4 °F 39.2 °F 87% 29.84 in 3.0 mi NE 15.0 mph - N/A   Overcast
5:46 PM 42.8 °F 37.0 °F 39.2 °F 87% 29.84 in 5.0 mi NE 10.4 mph 19.6 mph N/A   Overcast
5:47 PM 42.8 °F 36.2 °F 39.2 °F 87% 29.84 in 6.0 mi NNE 12.7 mph 19.6 mph N/A   Overcast
6:00 PM 42.8 °F 37.5 °F 39.2 °F 87% 29.85 in 9.0 mi NE 9.2 mph 19.6 mph N/A   Overcast
6:06 PM 42.8 °F 36.6 °F 39.2 °F 87% 29.86 in 9.0 mi NNE 11.5 mph 19.6 mph N/A   Overcast
6:29 PM 42.8 °F 36.6 °F 39.2 °F 87% 29.86 in 9.0 mi NE 11.5 mph 20.7 mph N/A Rain Light Rain
6:33 PM 42.8 °F 36.2 °F 39.2 °F 87% 29.86 in 9.0 mi NE 12.7 mph 20.7 mph N/A Rain Light Rain
6:42 PM 42.8 °F 36.6 °F 39.2 °F 87% 29.86 in 9.0 mi NE 11.5 mph - N/A   Overcast
7:00 PM 42.8 °F 37.0 °F 39.2 °F 87% 29.86 in 9.0 mi NE 10.4 mph - N/A   Overcast
7:18 PM 42.8 °F 36.6 °F 39.2 °F 87% 29.86 in 9.0 mi NE 11.5 mph - N/A   Overcast
7:39 PM 42.8 °F 37.0 °F 37.4 °F 81% 29.87 in 9.0 mi NE 10.4 mph 21.9 mph N/A Rain Light Rain
8:00 PM 43 °F - 38 °F 77% 29.87 in 7 mi NNE 6.9 mph - - Rain Light Rain
8:00 PM 42.8 °F 39.3 °F 39.2 °F 87% 29.87 in 8.0 mi North 5.8 mph - N/A Rain Light Rain
8:35 PM 42.8 °F 38.0 °F 39.2 °F 87% 29.87 in 5.0 mi North 8.1 mph - N/A Rain Light Rain
9:00 PM 42.8 °F 38.6 °F 39.2 °F 87% 29.87 in 5.0 mi North 6.9 mph - N/A Rain Light Rain
9:22 PM 41.0 °F 33.9 °F 37.4 °F 87% 29.88 in 6.0 mi NE 12.7 mph - N/A Rain Light Rain
9:52 PM 41.0 °F 36.4 °F 35.6 °F 81% 29.89 in 9.0 mi North 6.9 mph 17.3 mph N/A Rain Light Rain
9:53 PM 41.0 °F 36.4 °F 37.4 °F 87% 29.89 in 9.0 mi NNE 6.9 mph 17.3 mph N/A Rain Light Rain
9:55 PM 41.0 °F 35.8 °F 37.4 °F 87% 29.89 in 9.0 mi North 8.1 mph - N/A Rain Light Rain
10:00 PM 41.0 °F 35.8 °F 37.4 °F 87% 29.89 in 9.0 mi NNE 8.1 mph - N/A Rain Light Rain
11:00 PM 41.0 °F 34.7 °F 35.6 °F 81% 29.88 in 9.0 mi NE 10.4 mph - N/A Rain Light Rain